SCP
0 0 0 0 0 0 0 0 0 0 0 0 0 0 0 0 0 0 0 0 0 0 0 0 0 0 0 0 0 0 0 0 0 0 0 0 0 0 0 0 0 0 0
0 0 0 0 0 0 0 0 0 0 0 0 0 0 0 0 0 0 0 0 0 0 0 0 0 0 0 0 0 0 0 0 0 0 0 0 0 0 0 0 0 0 0
0 0 0 0 0 0 0 0 0 0 0 0 0 0 0 0 0 0 0 0 0 0 0 0 0 0 0 0 0 0 0 0 0 0 0 0 0 0 0 0 0 0 0
0 0 0 0 0 0 0 0 0 0 0 0 0 0 0 0 0 0 0 0 0 0 0 0 0 0 0 0 0 0 0 0 0 0 0 0 0 0 0 0 0 0 0
0 0 0 0 0 0 0 0 0 0 0 0 0 0 0 0 0 0 0 0 0 0 0 0 0 0 0 0 0 0 0 0 0 0 0 0 0 0 0 0 0 0 0
0 0 0 0 0 0 0 0 0 0 0 0 0 0 0 0 0 0 0 0 0 0 0 0 0 0 0 0 0 0 0 0 0 0 0 0 0 0 0 0 0 0 0
0 0 0 0 0 0 0 0 0 0 0 0 0 0 0 0 0 0 0 0 0 0 0 0 0 0 0 0 0 0 0 0 0 0 0 0 0 0 0 0 0 0 0
0 0 0 0 0 0 0 0 0 0 0 0 0 0 0 0 0 0 0 0 0 0 0 0 0 0 0 0 0 0 0 0 0 0 0 0 0 0 0 0 0 0 0
0 0 0 0 0 0 0 0 0 0 0 0 0 0 0 0 0 0 0 0 0 0 0 0 0 0 0 0 0 0 0 0 0 0 0 0 0 0 0 0 0 0 0
0 0 0 0 0 0 0 0 0 0 0 0 0 0 0 0 0 0 0 0 0 0 0 0 0 0 0 0 0 0 0 0 0 0 0 0 0 0 0 0 0 0 0
-0 0 0 0 0 0 0 0 0 0 0 0 0 0 0 0 0 0 0 0 0 0 0 0 0 0 0 0 0 0 0 0 0 0 0 0 0 0 0 0 0 0 0
0 0 0 0 0 0 0 0 0 0 0 0 0 0 0 0 0 0 0 0 0 0 0 0 0 0 0 0 0 0 0 0 0 0 0 0 0 0 0 0 0 0 0
0 0 0 0 0 0 0 0 0 0 0 0 0 0 0 0 0 0 0 0 0 0 0 0 0 0 0 0 0 0 0 0 0 0 0 0 0 0 0 0 0 0 0
0 0 0 0 0 0 0 0 0 0 0 0 0 0 0 0 0 0 0 0 0 0 0 0 0 0 0 0 0 0 0 0 0 0 0 0 0 0 0 0 0 0 0
0 0 0 0 0 0 0 0 0 0 0 0 0 0 0 0 0 0 0 0 0 0 0 0 0 0 0 0 0 0 0 0 0 0 0 0 0 0 0 0 0 0 0
0 0 0 0 0 0 0 0 0 0 0 0 0 0 0 0 0 0 0 0 0 0 0 0 0 0 0 0 0 0 0 0 0 0 0 0 0 0 0 0 0 0 0
0 0 0 0 0 0 0 0 0 0 0 0 0 0 0 0 0 0 0 0 0 0 0 0 0 0 0 0 0 0 0 0 0 0 0 0 0 0 0 0 0 0 0
0 0 0 0 0 0 0 0 0 0 0 0 0 0 0 0 0 0 0 0 0 0 0 0 0 0 0 0 0 0 0 0 0 0 0 0 0 0 0 0 0 0 0
0 0 0 0 0 0 0 0 0 0 0 0 0 0 0 0 0 0 0 0 0 0 0 0 0 0 0 0 0 0 0 0 0 0 0 0 0 0 0 0 0 0 0
-0 -0 -0 -0 0 0 0 0 0 0 0 0 0 0 0 0 0 0 0 0 0 0 0 0 0 0 0 0 0 0 0 0 0 0 0 0 0 0 0 0 0 0 0
-0 -0 -0 -0 -0 0 0 0 0 0 0 0 0 0 0 0 0 0 0 0 0 0 0 0 0 0 0 0 0 0 0 0 0 0 0 0 0 0 0 0 0 0 0
0 0 0 0 0 0 0 0 0 0 0 0 0 0 0 0 0 0 0 0 0 0 0 0 0 0 0 0 0 0 0 0 0 0 0 0 0 0 0 0 0 0 0
0 0 0 0 0 0 0 0 0 0 0 0 0 0 0 0 0 0 0 0 0 0 0 0 0 0 0 0 0 0 0 0 0 0 0 0 0 0 0 0 0 0 0
0 0 0 0 0 0 0 0 0 0 0 0 0 0 0 0 0 0 0 0 0 0 0 0 0 0 0 0 0 0 0 0 0 0 0 0 0 0 0 0 0 0 0
0 0 0 0 0 0 0 0 0 0 0 0 0 0 0 0 0 0 0 0 0 0 0 0 0 0 0 0 0 0 0 0 0 0 0 0 0 0 0 0 0 0 0
0 0 0 0 0 0 0 0 0 0 0 0 0 0 0 0 0 0 0 0 0 0 0 0 0 0 0 0 0 0 0 0 0 0 0 0 0 0 0 0 0 0 0
Wind_Speed
2 3 5 5 5 5 5 5 5 5 4 3 3 3 2 2 2 2 3 3 3 3 3 3 3 4 4 5 5 5 5 4 3 2 2 3 4 5 5 5 4 5 5
4 5 5 6 5 6 6 6 5 5 4 3 3 2 3 2 2 2 2 3 3 3 3 3 3 4 4 4 4 4 3 3 3 3 2 1 2 3 4 4 5 5 4
3 5 6 5 6 6 6 6 6 6 5 4 3 2 2 2 2 2 2 3 3 3 2 3 3 4 4 4 5 5 6 4 3 4 4 3 3 1 2 4 4 4 4
2 3 5 6 6 6 6 6 6 6 5 4 3 2 2 2 3 2 2 3 2 2 2 2 2 3 4 4 5 5 4 5 4 3 3 3 2 2 2 2 3 4 5
2 3 4 5 5 6 6 6 6 6 5 4 3 2 3 3 3 2 2 2 2 2 2 2 2 3 3 3 4 4 4 4 4 4 3 2 2 2 2 3 2 2 3
2 3 4 4 5 6 6 5 6 6 5 4 4 3 3 3 3 2 2 2 2 2 2 2 2 2 3 3 3 4 4 4 4 3 3 3 3 3 2 4 4 4 3
2 3 4 5 6 7 7 6 6 6 6 4 4 3 3 3 3 3 2 2 2 2 2 2 2 2 3 3 3 3 3 3 4 4 3 3 3 2 2 3 3 4 3
2 3 4 4 5 7 7 6 6 6 6 5 4 3 3 2 2 3 2 2 2 2 3 3 3 2 3 3 3 2 2 2 3 4 4 3 3 2 2 3 3 4 3
3 3 3 4 5 6 6 6 6 6 5 5 4 4 3 3 3 2 2 2 2 2 3 3 2 2 2 3 3 2 3 3 3 3 4 3 3 2 2 2 3 4 5
3 3 3 3 4 5 5 6 5 5 5 5 4 4 4 3 2 1 2 2 3 2 3 2 2 2 2 2 2 2 3 2 2 2 3 2 1 1 1 2 2 3 4
3 3 2 3 3 4 5 5 5 5 5 5 4 4 3 3 2 2 2 2 2 2 2 2 2 2 2 2 2 2 2 2 2 2 3 3 2 2 2 2 3 3 3
3 2 2 2 3 4 5 5 5 6 5 5 4 4 4 3 3 3 3 2 2 2 2 1 1 1 1 1 1 2 2 2 3 3 3 3 2 2 2 2 3 3 3
2 1 2 2 3 4 4 5 5 5 5 5 4 4 4 4 3 3 3 3 2 2 2 1 1 1 1 1 1 2 2 2 3 3 3 3 3 3 3 3 3 3 3
2 2 2 3 3 3 3 4 4 5 5 4 4 4 4 4 3 3 3 3 2 2 2 2 2 1 1 2 1 1 1 1 1 2 3 3 4 4 4 3 3 3 3
3 3 3 3 3 3 3 3 4 4 4 4 5 4 4 4 3 3 3 3 3 3 3 2 2 2 1 1 1 1 1 1 1 1 2 2 3 3 3 3 2 3 3
5 4 4 3 3 3 3 3 3 4 4 4 4 4 4 4 3 3 3 3 3 3 3 3 2 2 2 3 3 1 0 0 1 1 2 2 2 2 3 4 4 4 4
5 5 4 4 3 3 2 2 3 3 3 4 4 5 4 4 4 3 4 4 3 3 3 3 3 3 3 4 4 3 1 1 1 2 2 2 2 3 3 3 5 5 7
5 5 4 4 3 2 2 2 2 2 2 3 4 4 4 4 4 4 4 3 3 3 3 3 3 3 4 4 3 4 2 1 2 3 3 3 4 4 3 3 3 4 5
6 5 5 4 3 2 2 1 1 2 2 3 3 4 4 4 4 4 4 3 3 3 3 3 3 3 3 4 4 4 1 1 2 3 3 3 4 5 4 3 3 5 5
4 4 3 3 3 3 2 1 2 2 3 3 4 3 3 3 4 4 3 3 3 3 3 4 4 3 3 5 5 5 1 1 2 2 3 4 5 5 4 3 4 5 5
4 3 3 3 4 3 2 2 2 3 4 3 3 3 3 3 3 3 3 3 3 3 4 4 4 4 4 5 6 6 2 2 2 2 3 3 5 5 5 4 4 5 5
3 3 3 4 3 3 3 3 4 4 3 2 2 3 3 2 2 2 3 3 3 3 3 3 4 3 4 5 5 7 6 5 3 3 3 3 4 4 4 3 4 5 4
4 3 4 3 3 4 4 5 5 3 2 2 3 2 2 2 2 2 2 3 2 2 3 3 3 4 4 4 7 8 8 8 4 3 4 5 4 3 3 3 4 3 2
4 3 3 3 4 4 5 5 4 3 2 3 3 2 2 2 2 2 2 2 2 2 3 3 3 4 4 4 4 4 4 5 5 3 4 4 4 3 3 3 2 2 2
3 3 4 5 5 4 4 4 3 3 3 3 3 3 2 2 2 2 2 3 3 3 3 3 3 3 4 6 9 6 5 4 4 4 2 2 2 2 2 2 2 2 2
3 3 4 4 4 3 4 4 3 3 3 3 3 2 2 2 2 2 4 5 5 6 7 6 5 5 7 9 9 9 8 8 6 3 2 3 3 3 3 3 3 3 3
Wind_Direction
324 352 357 353 350 347 346 340 333 326 327 324 317 304 292 290 288 276 276 273 270 258 240 243 237 226 217 215 212 204 204 210 196 196 246 248 229 219 211 206 201 205 208
0 1 357 357 355 348 344 339 334 328 324 311 296 279 277 269 264 266 283 289 279 266 253 243 237 232 225 218 217 207 203 210 191 177 175 245 252 231 220 209 204 207 207
353 347 348 347 347 344 336 331 327 324 320 315 310 311 303 311 302 302 302 298 287 272 264 257 243 239 227 218 214 212 201 208 208 189 179 188 219 236 235 217 211 208 208
344 335 335 336 336 328 323 321 321 321 318 319 320 317 312 293 284 286 283 292 291 291 281 271 259 250 240 227 219 219 215 199 209 212 207 208 188 189 230 234 217 216 219
308 318 321 323 326 324 323 322 321 321 322 323 315 304 291 273 276 284 293 304 315 305 293 275 262 256 250 237 223 220 225 213 209 210 207 216 220 208 204 236 234 244 230
310 319 322 326 327 328 329 329 331 330 328 329 322 320 302 295 297 298 294 301 296 290 287 269 256 258 255 246 232 220 221 222 213 212 206 201 194 202 209 223 229 239 242
308 320 327 332 333 333 332 333 337 335 333 329 327 328 318 303 292 289 284 282 279 281 286 278 259 257 252 247 239 226 223 230 219 215 217 215 219 204 216 221 232 244 252
299 305 314 323 327 326 329 333 337 334 335 335 330 325 327 317 304 298 294 289 286 284 284 272 262 262 261 256 241 222 222 236 236 230 218 218 224 211 213 217 221 243 253
286 295 313 324 325 326 328 330 333 334 336 335 332 336 334 322 314 308 301 301 294 289 286 277 275 269 258 252 250 231 224 227 234 232 224 223 225 210 216 226 220 222 243
284 296 310 321 324 324 329 332 330 331 329 332 332 337 326 318 318 328 319 300 296 293 288 290 283 277 268 253 245 251 236 219 239 230 218 220 221 205 216 224 240 239 242
266 277 297 314 321 329 334 334 336 340 340 340 339 338 331 331 340 340 325 310 314 319 308 297 291 288 289 283 255 257 246 227 238 234 215 215 203 201 223 226 231 239 239
250 261 289 317 329 331 333 333 339 342 337 336 344 353 353 355 357 344 334 332 333 324 316 319 324 318 295 271 258 274 270 247 241 237 220 222 215 213 222 224 234 241 243
259 275 293 303 311 318 327 328 334 336 337 343 352 359 358 358 350 347 345 347 345 342 342 338 319 298 291 287 259 254 268 255 237 229 221 222 214 225 233 232 236 245 257
244 254 272 285 299 312 323 328 331 333 339 348 356 360 353 348 345 345 345 346 346 341 339 341 332 319 301 290 274 244 244 254 253 237 232 232 226 225 225 230 232 239 251
244 246 258 274 293 309 318 326 332 337 343 353 357 353 348 350 355 353 350 353 356 352 352 357 351 342 323 308 307 235 221 225 264 270 252 246 253 258 254 256 246 240 244
243 242 250 258 271 286 302 317 329 334 346 355 352 349 354 353 355 355 358 5 2 358 5 0 347 348 343 355 356 360 115 245 252 279 291 274 249 271 285 285 284 276 255
241 237 240 242 250 259 272 293 308 328 346 351 350 350 352 352 349 356 8 3 354 356 354 345 345 347 343 347 354 355 344 313 270 259 261 274 272 267 248 272 288 283 279
237 237 234 238 245 250 271 286 309 325 334 340 344 345 348 347 351 1 1 349 344 348 343 340 340 337 334 345 350 350 344 311 285 276 261 253 261 261 266 257 272 271 272
229 229 224 219 222 233 244 272 308 318 328 328 327 332 339 343 349 353 348 344 350 355 351 346 347 338 330 338 341 347 313 294 287 279 277 268 259 278 291 271 270 279 277
221 220 216 203 211 228 210 221 276 301 299 300 307 316 331 338 338 337 338 342 350 350 348 348 342 334 325 335 342 339 303 295 295 292 286 282 281 287 293 262 255 265 276
220 209 203 209 219 214 197 224 256 270 277 287 300 312 322 327 329 334 335 338 343 346 345 341 336 333 330 334 338 338 324 304 301 298 296 288 301 298 297 288 265 273 289
225 209 210 229 227 205 199 231 251 261 274 279 286 300 308 313 328 332 331 331 335 338 333 330 329 330 327 332 331 334 330 321 300 294 299 300 307 302 302 300 309 315 305
231 219 216 235 240 216 204 228 251 256 257 262 266 279 300 311 312 311 318 324 327 322 313 315 319 324 327 329 333 335 332 326 314 300 307 313 315 311 298 306 323 324 299
233 222 218 236 251 240 227 231 245 239 236 250 262 265 274 294 304 297 291 297 297 299 305 310 313 318 320 321 323 322 322 324 317 306 306 315 317 319 321 319 306 297 292
236 219 222 234 246 248 246 243 237 220 232 249 260 267 263 269 284 293 279 277 266 271 283 283 290 298 301 304 315 320 317 316 310 316 317 317 315 316 313 310 304 299 301
231 229 233 238 245 243 249 247 232 216 222 243 253 258 268 270 271 287 304 295 289 295 293 289 289 288 293 306 310 313 320 323 324 328 308 306 301 289 290 293 297 290 294